The Dilly Family's Weather Page
McMurray, PA 15317   Weather
Using a La Crosse Technology Model 2315 Weather Station

  Local Radar

Local Radar

  Graphs, Details
Detailed Weather
Detailed Reports
Mobile Version of This Page
Brief Version of This Page
  Maps
Temperature
Heat Index
Windchill
Humidity
Radar
Dew Point
Wind
Visibility
Visible Satellite
Satellite
Fronts
Snow Depth
Jet Stream
Flight Rules
  Forecast Maps
Temperature Forecast
Maximum Temperature Forecast
Minimum Temperature Forecast
Dewpoint Forecast
Prevalent Weather
12Hr Probability of Precip.
Sky Cover
  Health Maps
UV Forecast
Air Quality
Peak Air Quality Index
  Weather Station
La Crosse Technology
 
 
Weather Underground PWS KPAMCMUR4
KPAMCMUR4 Dashboard
 

HeavyWeather Data
WeatherForYou.com METAR
Worldwide Station List METAR
Meteorological Products Processed At The NWSTG
Stickers       Local PC Clock

  Current Conditions [Select Refresh to Update]

Updated: 2:59am on 3/30/15

Currently:
40.6°

Clear
Overcast

High: 40.6° 
(2:57am) 
Low: 37.9° 
(12:45am)
Wind: 0 mph from the SSW
Gust: 0 mph
Today's High Wind: 13 mph (2:20am)
Humidity: 70%
Pressure: 29.81 in  (Falling) 
Pressure Rate: -0.034 in/hr
Dew Point: 31.6°
Wind Chill: 40.6°
Heat Index (feels like): 43.6°
Comfort Level: Cool
Temperature Rate:  0.88°/hr
 
  5 Day Forecast
 
Mon Tue Wed Thu Fri
Clear Clear Clear Clear Clear
Chance Rain Rain Partly Cloudy Mostly Cloudy Chance Rain
48° 53° 54° 71° 57°
33° 29° 40° 45° 37°

  Records and Normals
 
Temperature Forecast Normal Record
High 48° 58° 82°
(1986)
Low 33° 37° 12°
(1970)
 
  Almanac
Sunrise:  
7:06am
Moonrise: 
3:30pm

Moon Phase:
77%

Sunset: 
7:40pm
Moonset:  
4:32am
 
  Weather Underground     KPAMCMUR4

  Weather Advisories
No Warning
Full Advisory Text...
  Weather Map

 
  Web Cams   (Northerly View)
Northerly view toward Pittsburgh.
 
  Rainfall Totals
Hourly Rain 0.00 in
Daily Rain 0.00 in
Monthly Rain 4.08 in
Yearly Rain 6.65 in
Normal Rain, month to date       6.16 in
Normal Rain, year to date 10.45 in
 
 
Weather.com
WeatherUnderground NorthEast Fronts
WeatherUnderground NorthEast Radar
WeatherBug NorthEast Radar
WeatherBug, Peters HS
WPXI Weather
KDKA Weather
WTEA Weather
Intellacast Canonsburg
AccuWeather
Yahoo, McMurray
Twitter, Pittsburgh
Fox53 Radar - Uses Pop-up Ads!
Time and Date, Pittsburgh
NOAA Weather Pitt
FilghtStats PIT
NWS Thompsonville
USGS Tides and Temperature at Manasquan
NWS US Radar - Loop
Windyty, Wind Forecast
  Local Weather Exchange Network
Station ID

City 
(Click for Map Location)

Neighborhood 
(Click for History)
Last Update (Date & Time)

Temperature
 (°)

Dew
Point (°)
Humidity 
(%)
Wind 
(mph)
from the Wind Gust 
(mph) 
Pressure (in) Hourly
Rain (in)
KPACANON7 Canonsburg Scenery Circle 03/30 02:55:49 38.7 28.0 65 0 North 0 29.92 0.00
KPACANON5 Canonsburg Canonsburg 03/30 02:59:58 41.7 32.0 69 0 West 1 29.86 0.00
KPAMCMUR5 McMurray Bremen Lane 03/30 02:55:27 44.2 30.0 58 0 North 0 29.92 0.00
KPAMCMUR4 McMurray Thompsonville-McMurray 03/30 02:59:17 40.6 32.0 70 0 West 0 29.81 0.00
KPABRIDG3 Bridgeville Willowbrook 03/30 02:59:55 42.1 32.0 66 7 WSW 10 29.87 0.00
KPACANON6 Canonsburg Sunset Acres, McMurray PA KPACANON6 03/30 02:52:58 40.8 32.0 72 3 South 0 29.85 0.00
KPAMCMUR3 McMurray St. Benedict the Abbot 03/30 03:00:02 41.7 32.0 69 8 South 18 29.85 0.00
KPABRIDG2 Bridgeville Hunting Ridge 03/30 02:45:05 40.3 32.0 71 4 NW 5 28.70 0.00
KPAEIGHT3 Eighty Four Nottingham Twp. 03/30 02:59:56 40.6 30.0 67 18 SW 18 29.90 0.00
KPAVENET5 Venetia Willamar 03/30 02:47:06 40.5 31.0 69 8 NW 0 29.78 0.00
KPABRIDG1 Bridgeville Olde Orchard South Fayette Bridgeville 03/30 02:59:57 40.3 30.0 67 2 SE 2 29.76 0.00
KPAVENET3 Venetia Bower Hill Rd 03/30 02:59:53 41.5 34.0 73 0 SSE 0 29.91 0.00
KPAPITTS69 Pittsburgh Mayview Road USC by Rec Center 03/30 03:00:07 40.6 31.0 68 2 West 4 29.38 0.00
KPABETHE4 Bethel Park Bethel Park, PA - Terrasurv 03/30 02:56:52 40.6 32.0 71 15 SW 18 29.85 0.00
MD6598 Cuddy APRSWXNET Cuddy PA US 03/30 02:33:00 39.0 33.0 78 4 SSW 12 29.92 0.00
KPAPITTS109 Pittsburgh Tragone Drive 03/30 02:55:46 40.1 30.0 67 0 North 0 29.96 0.00
KPABETHE3 Bethel Park Bethel Park 03/30 02:55:16 41.2 33.0 72 7 SSW 14 29.91 0.00
KPAWASHI5 Washington Cameron Estates/South Strabane 03/30 02:58:20 40.4 31.0 68 9 SW 0 29.89 0.00
KPAVENET4 Venetia Sugar Run Road 03/30 03:00:06 41.5 28.0 59 5 West 13 29.68 0.00
KPAFINLE2 Finleyville Banahasky Lane 03/30 02:56:01 40.1 26.0 56 0 North 0 29.73 0.00
KPAPITTS89 Pittsburgh Washington Road 03/30 02:55:43 40.8 32.0 72 0 North 0 29.98 0.00
KPAMTLEB2 Mount Lebanon Mount Lebanon 03/30 02:59:52 39.9 15.0 36 3 South 3 29.61 0.00
KPAWASHI3 Washington Canton Twp. 03/30 02:49:41 40.9 33.0 72 9 NNW 24 29.89 0.00
KPASCOTT2 Scott Township Scott Township Neighborhood Weather 03/30 03:00:00 42.4 26.0 51 6 NE 13 29.93 0.00
KPAPITTS87 Pittsburgh Mt. Lebanon, PA 03/30 02:59:59 40.0 31.0 69 0 SSE 4 29.88 0.00
KPAPITTS98 Pittsburgh Jamestown Road 03/30 02:55:52 39.2 30.0 70 0 North 0 29.94 0.00
KPAPITTS50 Pittsburgh Dormont 03/30 03:00:06 41.5 34.0 73 4 South 7 29.69 0.00
KPAPITTS97 Pittsburgh Greentree 03/30 03:00:06 41.2 31.0 66 5 SSW 7 29.75 0.00
KPAPITTS103 Pittsburgh Overbrook 03/30 02:55:42 40.8 31.0 68 0 North 0 29.74 0.00
KPAWASHI8 Washington Walker Road 03/30 02:55:39 39.9 32.0 72 0 North 0 29.97 0.00
KPAPITTS88 Pittsburgh Village Green Drive 03/30 02:55:44 40.5 30.0 67 0 North 0 29.96 0.00
KPAPITTS29 Pittsburgh Carrick/Pittsburgh 03/30 02:58:31 40.5 32.0 72 2 NW 7 29.89 0.00
KPACRAFT2 Crafton Bradford Court 03/30 02:59:27 41.4 39.0 90 4 SW 7 29.45 0.00
KPAPITTS58 Pittsburgh Robinson Township 03/30 03:00:04 39.7 33.0 77 3 SSW 7 29.82 0.00
KPAIMPER1 Imperial Imperial Neighborhood Weather 03/30 02:56:06 39.9 34.0 81 0 South 13 29.85 0.01
KPAIMPER4 Imperial Walden Woods 03/30 03:00:07 40.6 34.0 77 2 SSW 5 29.96 0.00
KPAPITTS46 Pittsburgh Baldwin 03/30 03:00:00 41.0 32.0 69 0 North 0 29.89 0.00
KPAPITTS62 Pittsburgh Crafton Heights 03/30 02:59:53 39.9 30.0 68 1 SSE 0 29.78 0.00
KPACLAIR2 Clairton Jefferson Hills 03/30 03:00:06 42.1 32.0 67 0 SSW 0 29.91 0.00
KPAIMPER8 Imperial Santiago 03/30 02:46:47 40.1 32.0 72 6 SSW 0 29.71 0.00
  Full Advisory Text
No Warnings

3/30/15 4+ 2:59am   - http://weatherstation.wunderground.com/weatherstation/updateweatherstation.php?action=updateraw&ID=KPASMITH2&PASSWORD=&dateutc=2010-07-05+22%3A09%3A33&winddir=SSW&tempf=40.6&windspeedmph=0&humidity=70&dewptf=31.6&baromin=29.81&rainin=0.00&dailyrainin=0.00

Ambient Weather and Weather Underground
 Never base important decisions on this or any weather information obtained from the Internet
Updated Automatically by Ambient Weather's Virtual Weather Station  V14.00

Template updated: 7:39 AM 2/21/2015